Date String (YYYY-MM-DD hh:mm:ss) UTC,Instrument flags,Ambient pressure (hPa),Sample flow (lpm),Bypass flow (lpm),Sample temperature (°C),Ambient temperature (°C),ASC tube jacket temperature (°C),LED temperature (°C),Box temperature (°C),Sample RH (%),Span deviation,Mass concentration (μg/m³),Mass concentration (μg/m³),Mass concentration (μg/m³)
DateTimeUTC,F1_M11,P_M11,Q1_M11,Q2_M11,T1_M11,T2_M11,T3_M11,T4_M11,T5_M11,U1_M11,ZSPAN_M11,X0_M11,X2_M11,X1_M11
2023-03-12 07:00:00,,0823.7,5.00,0.00,22.5,20.9,00.0,31.2,24.2,09.0,0000.0,0007.54,0001.08,0000.43
2023-03-12 07:01:00,,0823.7,5.02,0.00,22.5,20.9,00.0,31.2,24.2,09.0,0000.0,0007.45,0001.05,0000.42
2023-03-12 07:02:00,,0823.6,5.01,0.00,22.4,20.8,00.0,31.2,24.2,09.0,0000.0,0006.86,0001.06,0000.43
2023-03-12 07:03:00,,0823.7,5.00,0.00,22.4,20.8,00.0,31.2,24.1,09.0,0000.0,0006.84,0001.05,0000.43
2023-03-12 07:04:00,,0823.7,5.01,0.00,22.4,20.8,00.0,31.2,24.1,09.1,0000.0,0006.44,0001.03,0000.43
2023-03-12 07:05:00,,0823.7,5.00,0.00,22.4,20.8,00.0,31.2,24.1,09.1,0000.0,0006.46,0001.04,0000.44
2023-03-12 07:06:00,,0823.7,4.97,0.00,22.4,20.8,00.0,31.2,24.1,09.1,0000.0,0006.62,0001.08,0000.43
2023-03-12 07:07:00,,0823.7,5.03,0.00,22.4,20.8,00.0,31.2,24.1,09.1,0000.0,0006.05,0001.07,0000.44
2023-03-12 07:08:00,,0823.7,5.02,0.00,22.4,20.8,00.0,31.1,24.1,09.1,0000.0,0004.84,0001.01,0000.44
2023-03-12 07:09:00,,0823.7,5.04,0.00,22.4,20.8,00.0,31.1,24.1,09.1,0000.0,0003.97,0001.01,0000.45
2023-03-12 07:10:00,,0823.7,5.02,0.00,22.4,20.8,00.0,31.1,24.1,09.1,0000.0,0003.51,0001.02,0000.45
2023-03-12 07:11:00,,0823.7,5.00,0.00,22.3,20.7,00.0,31.1,24.0,09.1,0000.0,0003.42,0001.02,0000.45
2023-03-12 07:12:00,,0823.7,5.00,0.00,22.3,20.7,00.0,31.1,24.0,09.1,0000.0,0003.49,0001.08,0000.46
2023-03-12 07:13:00,,0823.7,5.00,0.00,22.3,20.7,00.0,31.1,24.0,09.1,0000.0,0003.95,0001.11,0000.46
2023-03-12 07:14:00,,0823.7,5.00,0.00,22.3,20.6,00.0,31.1,23.9,09.1,0000.0,0004.01,0001.08,0000.47
2023-03-12 07:15:00,,0823.7,5.00,0.00,22.3,20.5,00.0,31.1,23.9,09.2,0000.0,0003.65,0001.09,0000.47
2023-03-12 07:16:00,,0823.7,4.99,0.00,22.2,20.5,00.0,31.1,23.9,09.2,0000.0,0003.24,0001.09,0000.46
2023-03-12 07:17:00,,0823.7,5.00,0.00,22.2,20.6,00.0,31.0,23.9,09.2,0000.0,0003.09,0001.06,0000.46
2023-03-12 07:18:00,,0823.7,5.00,0.00,22.3,21.5,00.0,31.0,24.1,09.2,0000.0,0004.54,0001.07,0000.46
2023-03-12 07:19:00,,0823.7,4.97,0.00,22.4,22.5,00.0,31.0,24.3,09.1,0000.0,0005.33,0001.12,0000.46
2023-03-12 07:20:00,,0823.7,4.96,0.00,22.5,22.8,00.0,31.1,24.5,09.1,0000.0,0005.53,0001.17,0000.46
2023-03-12 07:21:00,,0823.8,4.99,0.00,22.6,22.4,00.0,31.1,24.5,09.0,0000.0,0005.41,0001.12,0000.45
2023-03-12 07:22:00,,0823.8,4.99,0.00,22.6,22.1,00.0,31.1,24.4,09.1,0000.0,0005.68,0001.11,0000.45
2023-03-12 07:23:00,,0823.8,5.00,0.00,22.6,21.8,00.0,31.1,24.4,09.1,0000.0,0005.66,0001.07,0000.44
2023-03-12 07:24:00,,0823.8,5.00,0.00,22.5,21.6,00.0,31.2,24.3,09.1,0000.0,0005.58,0001.10,0000.44
2023-03-12 07:25:00,,0823.8,5.01,0.00,22.5,21.5,00.0,31.2,24.3,09.1,0000.0,0005.76,0001.12,0000.44
2023-03-12 07:26:00,,0823.7,5.00,0.00,22.5,21.4,00.0,31.2,24.3,09.1,0000.0,0005.68,0001.10,0000.44
2023-03-12 07:27:00,,0823.7,5.00,0.00,22.5,21.2,00.0,31.2,24.3,09.1,0000.0,0005.88,0001.12,0000.45
2023-03-12 07:28:00,,0823.7,5.01,0.00,22.5,21.2,00.0,31.2,24.3,09.0,0000.0,0005.73,0001.08,0000.45
2023-03-12 07:29:00,,0823.8,4.99,0.00,22.5,21.1,00.0,31.2,24.3,09.0,0000.0,0005.37,0001.07,0000.45
2023-03-12 07:30:00,,0823.8,5.00,0.00,22.5,21.0,00.0,31.2,24.2,09.1,0000.0,0004.68,0001.05,0000.45
2023-03-12 07:31:00,,0823.8,5.00,0.00,22.5,20.9,00.0,31.2,24.2,09.0,0000.0,0004.69,0001.04,0000.46
2023-03-12 07:32:00,,0823.8,4.99,0.00,22.5,20.9,00.0,31.2,24.2,09.1,0000.0,0004.62,0001.03,0000.46
2023-03-12 07:33:00,,0823.8,5.01,0.00,22.5,20.9,00.0,31.2,24.1,09.1,0000.0,0004.64,0001.07,0000.46
2023-03-12 07:34:00,,0823.8,5.01,0.00,22.4,20.8,00.0,31.2,24.2,09.1,0000.0,0005.02,0001.09,0000.47
2023-03-12 07:35:00,,0823.8,5.00,0.00,22.4,20.8,00.0,31.2,24.2,09.1,0000.0,0004.73,0001.06,0000.47
2023-03-12 07:36:00,,0823.8,5.01,0.00,22.4,20.8,00.0,31.2,24.2,09.1,0000.0,0004.29,0001.02,0000.47
2023-03-12 07:37:00,,0823.8,5.00,0.00,22.4,20.8,00.0,31.2,24.2,09.1,0000.0,0005.64,0001.03,0000.47
2023-03-12 07:38:00,,0823.9,5.00,0.00,22.4,20.8,00.0,31.2,24.1,09.1,0000.0,0005.35,0001.00,0000.47
2023-03-12 07:39:00,,0823.8,5.01,0.00,22.4,20.8,00.0,31.2,24.1,09.1,0000.0,0005.47,0001.03,0000.48
2023-03-12 07:40:00,,0823.8,5.00,0.00,22.4,20.7,00.0,31.2,24.1,09.1,0000.0,0004.81,0001.04,0000.49
2023-03-12 07:41:00,,0823.8,5.00,0.00,22.4,20.7,00.0,31.1,24.1,09.2,0000.0,0004.53,0001.02,0000.49
2023-03-12 07:42:00,,0823.8,5.00,0.00,22.4,20.7,00.0,31.1,24.1,09.2,0000.0,0005.08,0000.99,0000.49
2023-03-12 07:43:00,,0823.8,5.00,0.00,22.3,20.7,00.0,31.1,24.1,09.2,0000.0,0006.16,0001.01,0000.51
2023-03-12 07:44:00,,0823.8,4.99,0.00,22.3,20.6,00.0,31.1,24.1,09.2,0000.0,0007.02,0001.02,0000.51
2023-03-12 07:45:00,,0823.8,5.00,0.00,22.3,20.6,00.0,31.1,24.0,09.1,0000.0,0007.22,0001.07,0000.51
2023-03-12 07:46:00,,0823.9,5.00,0.00,22.3,20.6,00.0,31.1,24.0,09.2,0000.0,0007.30,0001.06,0000.52
2023-03-12 07:47:00,,0823.9,4.99,0.00,22.3,20.6,00.0,31.1,24.0,09.2,0000.0,0007.11,0001.05,0000.52
2023-03-12 07:48:00,,0824.0,5.00,0.00,22.3,20.5,00.0,31.1,24.0,09.2,0000.0,0005.71,0001.01,0000.52
2023-03-12 07:49:00,,0824.0,4.99,0.00,22.3,20.5,00.0,31.1,24.0,09.2,0000.0,0005.77,0001.01,0000.52
2023-03-12 07:50:00,,0824.0,5.01,0.00,22.2,20.4,00.0,31.1,23.9,09.2,0000.0,0006.39,0001.03,0000.52
2023-03-12 07:51:00,,0823.9,5.00,0.00,22.2,20.6,00.0,31.0,24.0,09.2,0000.0,0006.64,0001.02,0000.52
2023-03-12 07:52:00,,0824.0,5.01,0.00,22.3,21.5,00.0,31.0,24.2,09.2,0000.0,0006.99,0001.05,0000.52
2023-03-12 07:53:00,,0823.9,5.01,0.00,22.4,22.7,00.0,31.0,24.5,09.1,0000.0,0006.76,0001.10,0000.53
2023-03-12 07:54:00,,0824.0,5.00,0.00,22.6,23.1,00.0,31.1,24.6,09.1,0000.0,0005.81,0001.15,0000.52
2023-03-12 07:55:00,,0824.0,4.96,0.00,22.6,22.6,00.0,31.1,24.5,09.1,0000.0,0005.33,0001.13,0000.51
2023-03-12 07:56:00,,0823.9,4.99,0.00,22.6,22.2,00.0,31.1,24.4,09.1,0000.0,0006.31,0001.13,0000.51
2023-03-12 07:57:00,,0823.9,5.00,0.00,22.6,21.8,00.0,31.1,24.3,09.1,0000.0,0006.50,0001.16,0000.50
2023-03-12 07:58:00,,0823.9,5.00,0.00,22.5,21.6,00.0,31.2,24.3,09.1,0000.0,0006.64,0001.16,0000.50
2023-03-12 07:59:00,,0823.9,4.99,0.00,22.5,21.4,00.0,31.2,24.3,09.2,0000.0,0006.79,0001.19,0000.49
